Location: Hradec Kralove
(50.2170°N, 15.8330°E)
Time: 11:56:06
(UTC+02:00)

Vanguard 2 - Visible Passes

Search period start: 20 April 2024 00:00
Search period end: 30 April 2024 00:00
Orbit: 552 x 2917 km, 32.9° (Epoch: 19 April)

Date Brightness Start Highest point End Pass type
(mag) Time Alt. Az. Time Alt. Az. Time Alt. Az.
20 Apr 11.1 01:12:59 21° SE 01:13:01 21° SE 01:24:06 10° E visible
20 Apr 10.7 03:14:05 26° SSW 03:22:01 37° SSE 03:36:49 10° ESE visible
20 Apr 10.8 05:16:37 10° WSW 05:32:14 42° S 05:46:23 10° ESE visible
21 Apr 10.9 01:26:10 25° SSE 01:26:59 25° SE 01:39:30 10° E visible
21 Apr 10.7 03:27:16 24° SSW 03:36:17 39° SSE 03:51:26 10° ESE visible
22 Apr 10.7 01:39:19 28° SSE 01:41:01 29° SSE 01:54:34 10° E visible
22 Apr 10.7 03:40:25 22° SW 03:50:35 41° S 04:05:57 10° ESE visible
22 Apr 11.3 23:51:21 13° ESE 23:51:21 13° ESE 23:54:08 10° ESE visible
23 Apr 10.6 01:52:26 31° S 01:55:05 32° SSE 02:09:26 10° E visible
23 Apr 10.7 03:53:32 19° SW 04:04:54 42° S 04:20:22 10° ESE visible
24 Apr 11.1 00:04:27 17° ESE 00:04:27 17° ESE 00:10:20 10° ESE visible
24 Apr 10.4 02:05:32 32° S 02:09:13 36° SSE 02:24:07 10° ESE visible
24 Apr 10.7 04:06:38 15° WSW 04:19:12 42° S 04:34:40 10° ESE visible
25 Apr 10.9 00:17:32 21° SE 00:17:32 21° SE 00:25:48 10° E visible
25 Apr 10.4 02:18:38 32° SSW 02:23:24 38° SSE 02:38:41 10° ESE visible
25 Apr 10.7 04:19:43 12° WSW 04:33:30 41° S 04:48:51 10° SE visible
26 Apr 10.7 00:30:37 25° SE 00:30:37 25° SE 00:40:53 10° E visible
26 Apr 10.4 02:31:42 31° SSW 02:37:38 40° S 02:53:08 10° ESE visible
26 Apr 10.7 04:33:32 10° WSW 04:47:45 39° SSW 05:02:53 10° SE visible
27 Apr 10.5 00:43:42 29° SE 00:43:42 29° SE 00:55:43 10° ESE visible
27 Apr 10.4 02:44:47 28° SW 02:51:53 41° S 03:07:29 10° ESE visible
27 Apr 10.8 04:48:05 10° WSW 05:01:58 36° SSW 05:16:46 10° SE visible
28 Apr 10.3 00:56:47 33° SSE 00:56:47 33° SSE 01:10:22 10° ESE visible
28 Apr 10.4 02:57:52 24° SW 03:06:09 40° S 03:21:44 10° ESE visible
28 Apr 10.8 05:02:45 10° WSW 05:16:09 33° SSW 05:30:25 10° SSE visible
28 Apr 11.0 23:08:47 14° ESE 23:08:47 14° ESE 23:11:19 10° ESE visible
29 Apr 10.2 01:09:53 35° S 01:10:51 35° SSE 01:24:53 10° ESE visible
29 Apr 10.5 03:10:59 20° WSW 03:20:24 39° S 03:35:50 10° SE visible
29 Apr 10.8 23:21:55 17° ESE 23:21:55 17° ESE 23:26:29 10° ESE visible
